Year,Month,Day,Hour,Minute,Value (Times are PST for temperature in C)
2009,06,08,00,00,14.10
2009,06,08,00,01,14.10
2009,06,08,00,02,14.10
2009,06,08,00,03,14.10
2009,06,08,00,04,14.10
2009,06,08,00,05,14.10
2009,06,08,00,06,14.10
2009,06,08,00,07,14.10
2009,06,08,00,08,14.10
2009,06,08,00,09,14.10
2009,06,08,00,10,14.10
2009,06,08,00,11,14.10
2009,06,08,00,12,14.10
2009,06,08,00,13,14.00
2009,06,08,00,14,14.00
2009,06,08,00,15,14.00
2009,06,08,00,16,14.00
2009,06,08,00,17,14.00
2009,06,08,00,18,13.90
2009,06,08,00,19,13.90
2009,06,08,00,20,13.90
2009,06,08,00,21,13.90
2009,06,08,00,22,13.90
2009,06,08,00,23,13.90
2009,06,08,00,24,13.90
2009,06,08,00,25,13.90
2009,06,08,00,26,13.90
2009,06,08,00,27,13.90
2009,06,08,00,28,13.90
2009,06,08,00,29,13.90
2009,06,08,00,30,13.90
2009,06,08,00,31,13.90
2009,06,08,00,32,13.90
2009,06,08,00,33,13.90
2009,06,08,00,34,13.90
2009,06,08,00,35,13.90
2009,06,08,00,36,13.90
2009,06,08,00,37,13.90
2009,06,08,00,38,13.90
2009,06,08,00,39,13.90
2009,06,08,00,40,13.90
2009,06,08,00,41,13.90
2009,06,08,00,42,13.90
2009,06,08,00,43,13.90
2009,06,08,00,44,13.90
2009,06,08,00,45,13.90
2009,06,08,00,46,13.90
2009,06,08,00,47,13.90
2009,06,08,00,48,13.90
2009,06,08,00,49,13.90
2009,06,08,00,50,13.90
2009,06,08,00,51,13.90
2009,06,08,00,52,13.90
2009,06,08,00,53,13.90
2009,06,08,00,54,13.90
2009,06,08,00,55,13.90
2009,06,08,00,56,13.90
2009,06,08,00,57,13.90
2009,06,08,00,58,13.90
2009,06,08,00,59,13.90
2009,06,08,01,00,13.90
2009,06,08,01,01,13.90
2009,06,08,01,02,13.90
2009,06,08,01,03,13.90
2009,06,08,01,04,13.90
2009,06,08,01,05,13.90
2009,06,08,01,06,13.80
2009,06,08,01,07,13.80
2009,06,08,01,08,13.80
2009,06,08,01,09,13.80
2009,06,08,01,10,13.70
2009,06,08,01,11,13.70
2009,06,08,01,12,13.70
2009,06,08,01,13,13.70
2009,06,08,01,14,13.70
2009,06,08,01,15,13.60
2009,06,08,01,16,13.60
2009,06,08,01,17,13.60
2009,06,08,01,18,13.60
2009,06,08,01,19,13.60
2009,06,08,01,20,13.60
2009,06,08,01,21,13.60
2009,06,08,01,22,13.60
2009,06,08,01,23,13.50
2009,06,08,01,24,13.50
2009,06,08,01,25,13.50
2009,06,08,01,26,13.50
2009,06,08,01,27,13.50
2009,06,08,01,28,13.50
2009,06,08,01,29,13.40
2009,06,08,01,30,13.40
2009,06,08,01,31,13.40
2009,06,08,01,32,13.30
2009,06,08,01,33,13.30
2009,06,08,01,34,13.30
2009,06,08,01,35,13.30
2009,06,08,01,36,13.30
2009,06,08,01,37,13.30
2009,06,08,01,38,13.30
2009,06,08,01,39,13.30
2009,06,08,01,40,13.30
2009,06,08,01,41,13.30
2009,06,08,01,42,13.30
2009,06,08,01,43,13.30
2009,06,08,01,44,13.20
2009,06,08,01,45,13.20
2009,06,08,01,46,13.20
2009,06,08,01,47,13.20
2009,06,08,01,48,13.20
2009,06,08,01,49,13.20
2009,06,08,01,50,13.20
2009,06,08,01,51,13.20
2009,06,08,01,52,13.20
2009,06,08,01,53,13.20
2009,06,08,01,54,13.20
2009,06,08,01,55,13.20
2009,06,08,01,56,13.20
2009,06,08,01,57,13.20
2009,06,08,01,58,13.10
2009,06,08,01,59,13.10
2009,06,08,02,00,13.10
2009,06,08,02,01,13.10
2009,06,08,02,02,13.10
2009,06,08,02,03,13.10
2009,06,08,02,04,13.10
2009,06,08,02,05,13.10
2009,06,08,02,06,13.10
2009,06,08,02,07,13.10
2009,06,08,02,08,13.10
2009,06,08,02,09,13.10
2009,06,08,02,10,13.10
2009,06,08,02,11,13.10
2009,06,08,02,12,13.10
2009,06,08,02,13,13.10
2009,06,08,02,14,13.10
2009,06,08,02,15,13.10
2009,06,08,02,16,13.10
2009,06,08,02,17,13.10
2009,06,08,02,18,13.10
2009,06,08,02,19,13.10
2009,06,08,02,20,13.10
2009,06,08,02,21,13.10
2009,06,08,02,22,13.10
2009,06,08,02,23,13.00
2009,06,08,02,24,13.00
2009,06,08,02,25,13.00
2009,06,08,02,26,13.00
2009,06,08,02,27,12.90
2009,06,08,02,28,12.90
2009,06,08,02,29,12.90
2009,06,08,02,30,12.90
2009,06,08,02,31,12.90
2009,06,08,02,32,12.90
2009,06,08,02,33,12.90
2009,06,08,02,34,12.90
2009,06,08,02,35,12.90
2009,06,08,02,36,12.90
2009,06,08,02,37,12.90
2009,06,08,02,38,12.80
2009,06,08,02,39,12.80
2009,06,08,02,40,12.80
2009,06,08,02,41,12.80
2009,06,08,02,42,12.80
2009,06,08,02,43,12.80
2009,06,08,02,44,12.80
2009,06,08,02,45,12.80
2009,06,08,02,46,12.80
2009,06,08,02,47,12.80
2009,06,08,02,48,12.80
2009,06,08,02,49,12.80
2009,06,08,02,50,12.80
2009,06,08,02,51,12.80
2009,06,08,02,52,12.80
2009,06,08,02,53,12.80
2009,06,08,02,54,12.80
2009,06,08,02,55,12.80
2009,06,08,02,56,12.80
2009,06,08,02,57,12.70
2009,06,08,02,58,12.70
2009,06,08,02,59,12.70
2009,06,08,03,00,12.70
2009,06,08,03,01,12.70
2009,06,08,03,02,12.70
2009,06,08,03,03,12.70
2009,06,08,03,04,12.70
2009,06,08,03,05,12.70
2009,06,08,03,06,12.70
2009,06,08,03,07,12.70
2009,06,08,03,08,12.70
2009,06,08,03,09,12.70
2009,06,08,03,10,12.80
2009,06,08,03,11,12.80
2009,06,08,03,12,12.80
2009,06,08,03,13,12.80
2009,06,08,03,14,12.80
2009,06,08,03,15,12.80
2009,06,08,03,16,12.80
2009,06,08,03,17,12.80
2009,06,08,03,18,12.80
2009,06,08,03,19,12.80
2009,06,08,03,20,12.80
2009,06,08,03,21,12.80
2009,06,08,03,22,12.80
2009,06,08,03,23,12.80
2009,06,08,03,24,12.80
2009,06,08,03,25,12.70
2009,06,08,03,26,12.70
2009,06,08,03,27,12.70
2009,06,08,03,28,12.70
2009,06,08,03,29,12.70
2009,06,08,03,30,12.70
2009,06,08,03,31,12.70
2009,06,08,03,32,12.70
2009,06,08,03,33,12.70
2009,06,08,03,34,12.70
2009,06,08,03,35,12.70
2009,06,08,03,36,12.70
2009,06,08,03,37,12.70
2009,06,08,03,38,12.70
2009,06,08,03,39,12.80
2009,06,08,03,40,12.80
2009,06,08,03,41,12.80
2009,06,08,03,42,12.80
2009,06,08,03,43,12.80
2009,06,08,03,44,12.80
2009,06,08,03,45,12.80
2009,06,08,03,46,12.80
2009,06,08,03,47,12.90
2009,06,08,03,48,12.90
2009,06,08,03,49,12.90
2009,06,08,03,50,12.90
2009,06,08,03,51,12.90
2009,06,08,03,52,12.90
2009,06,08,03,53,12.90
2009,06,08,03,54,12.90
2009,06,08,03,55,12.90
2009,06,08,03,56,12.90
2009,06,08,03,57,13.00
2009,06,08,03,58,13.00
2009,06,08,03,59,13.00
2009,06,08,04,00,13.00
2009,06,08,04,01,13.00
2009,06,08,04,02,13.00
2009,06,08,04,03,13.00
2009,06,08,04,04,13.10
2009,06,08,04,05,13.10
2009,06,08,04,06,13.10
2009,06,08,04,07,13.10
2009,06,08,04,08,13.10
2009,06,08,04,09,13.10
2009,06,08,04,10,13.10
2009,06,08,04,11,13.00
2009,06,08,04,12,13.10
2009,06,08,04,13,13.00
2009,06,08,04,14,13.00
2009,06,08,04,15,13.00
2009,06,08,04,16,13.00
2009,06,08,04,17,13.00
2009,06,08,04,18,13.00
2009,06,08,04,19,13.00
2009,06,08,04,20,13.00
2009,06,08,04,21,13.00
2009,06,08,04,22,13.00
2009,06,08,04,23,13.00
2009,06,08,04,24,13.00
2009,06,08,04,25,13.00
2009,06,08,04,26,12.90
2009,06,08,04,27,12.90
2009,06,08,04,28,12.90
2009,06,08,04,29,12.90
2009,06,08,04,30,12.90
2009,06,08,04,31,12.90
2009,06,08,04,32,12.90
2009,06,08,04,33,12.80
2009,06,08,04,34,12.80
2009,06,08,04,35,12.80
2009,06,08,04,36,12.80
2009,06,08,04,37,12.80
2009,06,08,04,38,12.80
2009,06,08,04,39,12.80
2009,06,08,04,40,12.80
2009,06,08,04,41,12.80
2009,06,08,04,42,12.80
2009,06,08,04,43,12.80
2009,06,08,04,44,12.80
2009,06,08,04,45,12.80
2009,06,08,04,46,12.70
2009,06,08,04,47,12.70
2009,06,08,04,48,12.70
2009,06,08,04,49,12.70
2009,06,08,04,50,12.70
2009,06,08,04,51,12.70
2009,06,08,04,52,12.70
2009,06,08,04,53,12.70
2009,06,08,04,54,12.80
2009,06,08,04,55,12.80
2009,06,08,04,56,12.80
2009,06,08,04,57,12.80
2009,06,08,04,58,12.80
2009,06,08,04,59,12.80
2009,06,08,05,00,12.80
2009,06,08,05,01,12.80
2009,06,08,05,02,12.80
2009,06,08,05,03,12.80
2009,06,08,05,04,12.80
2009,06,08,05,05,12.80
2009,06,08,05,06,12.80
2009,06,08,05,07,12.80
2009,06,08,05,08,12.80
2009,06,08,05,09,12.80
2009,06,08,05,10,12.80
2009,06,08,05,11,12.80
2009,06,08,05,12,12.80
2009,06,08,05,13,12.80
2009,06,08,05,14,12.80
2009,06,08,05,15,12.80
2009,06,08,05,16,12.80
2009,06,08,05,17,12.80
2009,06,08,05,18,12.80
2009,06,08,05,19,12.80
2009,06,08,05,20,12.80
2009,06,08,05,21,12.80
2009,06,08,05,22,12.80
2009,06,08,05,23,12.80
2009,06,08,05,24,12.80
2009,06,08,05,25,12.70
2009,06,08,05,26,12.70
2009,06,08,05,27,12.70
2009,06,08,05,28,12.70
2009,06,08,05,29,12.70
2009,06,08,05,30,12.70
2009,06,08,05,31,12.70
2009,06,08,05,32,12.70
2009,06,08,05,33,12.70
2009,06,08,05,34,12.70
2009,06,08,05,35,12.70
2009,06,08,05,36,12.60
2009,06,08,05,37,12.60
2009,06,08,05,38,12.60
2009,06,08,05,39,12.50
2009,06,08,05,40,12.50
2009,06,08,05,41,12.50
2009,06,08,05,42,12.40
2009,06,08,05,43,12.40
2009,06,08,05,44,12.40
2009,06,08,05,45,12.40
2009,06,08,05,46,12.40
2009,06,08,05,47,12.40
2009,06,08,05,48,12.50
2009,06,08,05,49,12.50
2009,06,08,05,50,12.50
2009,06,08,05,51,12.60
2009,06,08,05,52,12.60
2009,06,08,05,53,12.60
2009,06,08,05,54,12.60
2009,06,08,05,55,12.60
2009,06,08,05,56,12.70
2009,06,08,05,57,12.70
2009,06,08,05,58,12.70
2009,06,08,05,59,12.70
2009,06,08,06,00,12.70
2009,06,08,06,01,12.70
2009,06,08,06,02,12.70
2009,06,08,06,03,12.70
2009,06,08,06,04,12.80
2009,06,08,06,05,12.80
2009,06,08,06,06,12.80
2009,06,08,06,07,12.80
2009,06,08,06,08,12.80
2009,06,08,06,09,12.80
2009,06,08,06,10,12.80
2009,06,08,06,11,12.80
2009,06,08,06,12,12.90
2009,06,08,06,13,12.90
2009,06,08,06,14,12.90
2009,06,08,06,15,12.90
2009,06,08,06,16,12.90
2009,06,08,06,17,12.90
2009,06,08,06,18,13.00
2009,06,08,06,19,13.00
2009,06,08,06,20,13.00
2009,06,08,06,21,13.10
2009,06,08,06,22,13.10
2009,06,08,06,23,13.10
2009,06,08,06,24,13.10
2009,06,08,06,25,13.10
2009,06,08,06,26,13.10
2009,06,08,06,27,13.10
2009,06,08,06,28,13.10
2009,06,08,06,29,13.10
2009,06,08,06,30,13.10
2009,06,08,06,31,13.10
2009,06,08,06,32,13.10
2009,06,08,06,33,13.20
2009,06,08,06,34,13.20
2009,06,08,06,35,13.20
2009,06,08,06,36,13.20
2009,06,08,06,37,13.20
2009,06,08,06,38,13.20
2009,06,08,06,39,13.20
2009,06,08,06,40,13.20
2009,06,08,06,41,13.20
2009,06,08,06,42,13.20
2009,06,08,06,43,13.20
2009,06,08,06,44,13.30
2009,06,08,06,45,13.30
2009,06,08,06,46,13.30
2009,06,08,06,47,13.30
2009,06,08,06,48,13.30
2009,06,08,06,49,13.30
2009,06,08,06,50,13.30
2009,06,08,06,51,13.30
2009,06,08,06,52,13.30
2009,06,08,06,53,13.30
2009,06,08,06,54,13.30
2009,06,08,06,55,13.40
2009,06,08,06,56,13.40
2009,06,08,06,57,13.40
2009,06,08,06,58,13.40
2009,06,08,06,59,13.40
2009,06,08,07,00,13.40
2009,06,08,07,01,13.40
2009,06,08,07,02,13.50
2009,06,08,07,03,13.50
2009,06,08,07,04,13.50
2009,06,08,07,05,13.50
2009,06,08,07,06,13.50
2009,06,08,07,07,13.50
2009,06,08,07,08,13.50
2009,06,08,07,09,13.40
2009,06,08,07,10,13.40
2009,06,08,07,11,13.40
2009,06,08,07,12,13.40
2009,06,08,07,13,13.40
2009,06,08,07,14,13.40
2009,06,08,07,15,13.40
2009,06,08,07,16,13.40
2009,06,08,07,17,13.40
2009,06,08,07,18,13.40
2009,06,08,07,19,13.40
2009,06,08,07,20,13.40
2009,06,08,07,21,13.40
2009,06,08,07,22,13.40
2009,06,08,07,23,13.40
2009,06,08,07,24,13.40
2009,06,08,07,25,13.50
2009,06,08,07,26,13.50
2009,06,08,07,27,13.50
2009,06,08,07,28,13.50
2009,06,08,07,29,13.50
2009,06,08,07,30,13.50
2009,06,08,07,31,13.60
2009,06,08,07,32,13.60
2009,06,08,07,33,13.60
2009,06,08,07,34,13.60
2009,06,08,07,35,13.60
2009,06,08,07,36,13.60
2009,06,08,07,37,13.60
2009,06,08,07,38,13.60
2009,06,08,07,39,13.60
2009,06,08,07,40,13.60
2009,06,08,07,41,13.60
2009,06,08,07,42,13.70
2009,06,08,07,43,13.70
2009,06,08,07,44,13.70
2009,06,08,07,45,13.70
2009,06,08,07,46,13.70
2009,06,08,07,47,13.70
2009,06,08,07,48,13.70
2009,06,08,07,49,13.70
2009,06,08,07,50,13.70
2009,06,08,07,51,13.70
2009,06,08,07,52,13.70
2009,06,08,07,53,13.70
2009,06,08,07,54,13.80
2009,06,08,07,55,13.80
2009,06,08,07,56,13.80
2009,06,08,07,57,13.80
2009,06,08,07,58,13.80
2009,06,08,07,59,13.80
2009,06,08,08,00,13.80
2009,06,08,08,01,13.90
2009,06,08,08,02,13.90
2009,06,08,08,03,14.00
2009,06,08,08,04,14.00
2009,06,08,08,05,14.00
2009,06,08,08,06,14.10
2009,06,08,08,07,14.10
2009,06,08,08,08,14.10
2009,06,08,08,09,14.10
2009,06,08,08,10,14.10
2009,06,08,08,11,14.20
2009,06,08,08,12,14.20
2009,06,08,08,13,14.30
2009,06,08,08,14,14.30
2009,06,08,08,15,14.30
2009,06,08,08,16,14.30
2009,06,08,08,17,14.40
2009,06,08,08,18,14.40
2009,06,08,08,19,14.40
2009,06,08,08,20,14.50
2009,06,08,08,21,14.50
2009,06,08,08,22,14.50
2009,06,08,08,23,14.50
2009,06,08,08,24,14.50
2009,06,08,08,25,14.50
2009,06,08,08,26,14.50
2009,06,08,08,27,14.50
2009,06,08,08,28,14.60
2009,06,08,08,29,14.60
2009,06,08,08,30,14.60
2009,06,08,08,31,14.60
2009,06,08,08,32,14.60
2009,06,08,08,33,14.70
2009,06,08,08,34,14.70
2009,06,08,08,35,14.80
2009,06,08,08,36,14.80
2009,06,08,08,37,14.90
2009,06,08,08,38,14.90
2009,06,08,08,39,15.00
2009,06,08,08,40,15.00
2009,06,08,08,41,15.00
2009,06,08,08,42,15.00
2009,06,08,08,43,15.00
2009,06,08,08,44,15.00
2009,06,08,08,45,15.10
2009,06,08,08,46,15.10
2009,06,08,08,47,15.20
2009,06,08,08,48,15.30
2009,06,08,08,49,15.30
2009,06,08,08,50,15.30
2009,06,08,08,51,15.40
2009,06,08,08,52,15.40
2009,06,08,08,53,15.40
2009,06,08,08,54,15.30
2009,06,08,08,55,15.30
2009,06,08,08,56,15.40
2009,06,08,08,57,15.40
2009,06,08,08,58,15.40
2009,06,08,08,59,15.40
2009,06,08,09,00,15.40
2009,06,08,09,01,15.40
2009,06,08,09,02,15.40
2009,06,08,09,03,15.30
2009,06,08,09,04,15.30
2009,06,08,09,05,15.30
2009,06,08,09,06,15.20
2009,06,08,09,07,15.20
2009,06,08,09,08,15.20
2009,06,08,09,09,15.10
2009,06,08,09,10,15.10
2009,06,08,09,11,15.00
2009,06,08,09,12,15.00
2009,06,08,09,13,15.00
2009,06,08,09,14,15.00
2009,06,08,09,15,15.00
2009,06,08,09,16,15.00
2009,06,08,09,17,15.00
2009,06,08,09,18,15.00
2009,06,08,09,19,15.00
2009,06,08,09,20,15.00
2009,06,08,09,21,15.00
2009,06,08,09,22,15.00
2009,06,08,09,23,15.00
2009,06,08,09,24,15.00
2009,06,08,09,25,15.00
2009,06,08,09,26,15.00
2009,06,08,09,27,15.00
2009,06,08,09,28,15.00
2009,06,08,09,29,15.00
2009,06,08,09,30,15.00
2009,06,08,09,31,15.00
2009,06,08,09,32,15.00
2009,06,08,09,33,15.00
2009,06,08,09,34,15.00
2009,06,08,09,35,15.00
2009,06,08,09,36,15.00
2009,06,08,09,37,15.00
2009,06,08,09,38,15.10
2009,06,08,09,39,15.00
2009,06,08,09,40,15.00
2009,06,08,09,41,15.00
2009,06,08,09,42,15.00
2009,06,08,09,43,15.00
2009,06,08,09,44,15.00
2009,06,08,09,45,15.00
2009,06,08,09,46,15.00
2009,06,08,09,47,15.00
2009,06,08,09,48,15.00
2009,06,08,09,49,15.00
2009,06,08,09,50,15.00
2009,06,08,09,51,15.00
2009,06,08,09,52,15.00
2009,06,08,09,53,15.00
2009,06,08,09,54,15.00
2009,06,08,09,55,15.00
2009,06,08,09,56,15.00
2009,06,08,09,57,15.00
2009,06,08,09,58,15.00
2009,06,08,09,59,15.00
2009,06,08,10,00,15.00
2009,06,08,10,01,15.00
2009,06,08,10,02,15.00
2009,06,08,10,03,15.00
2009,06,08,10,04,15.00
2009,06,08,10,05,15.00
2009,06,08,10,06,15.00
2009,06,08,10,07,15.00
2009,06,08,10,08,15.00
2009,06,08,10,09,15.00
2009,06,08,10,10,15.00
2009,06,08,10,11,15.00
2009,06,08,10,12,15.00
2009,06,08,10,13,15.00
2009,06,08,10,14,15.00
2009,06,08,10,15,15.10
2009,06,08,10,16,15.10
2009,06,08,10,17,15.10
2009,06,08,10,18,15.10
2009,06,08,10,19,15.10
2009,06,08,10,20,15.20
2009,06,08,10,21,15.20
2009,06,08,10,22,15.30
2009,06,08,10,23,15.30
2009,06,08,10,24,15.30
2009,06,08,10,25,15.40
2009,06,08,10,26,15.40
2009,06,08,10,27,15.50
2009,06,08,10,28,15.50
2009,06,08,10,29,15.60
2009,06,08,10,30,15.60
2009,06,08,10,31,15.70
2009,06,08,10,32,15.70
2009,06,08,10,33,15.70
2009,06,08,10,34,15.70
2009,06,08,10,35,15.80
2009,06,08,10,36,15.80
2009,06,08,10,37,15.80
2009,06,08,10,38,15.90
2009,06,08,10,39,15.90
2009,06,08,10,40,16.00
2009,06,08,10,41,16.00
2009,06,08,10,42,16.10
2009,06,08,10,43,16.10
2009,06,08,10,44,16.10
2009,06,08,10,45,16.20
2009,06,08,10,46,16.20
2009,06,08,10,47,16.20
2009,06,08,10,48,16.30
2009,06,08,10,49,16.30
2009,06,08,10,50,16.30
2009,06,08,10,51,16.30
2009,06,08,10,52,16.40
2009,06,08,10,53,16.40
2009,06,08,10,54,16.40
2009,06,08,10,55,16.40
2009,06,08,10,56,16.50
2009,06,08,10,57,16.50
2009,06,08,10,58,16.50
2009,06,08,10,59,16.50
2009,06,08,11,00,16.50
2009,06,08,11,01,16.50
2009,06,08,11,02,16.50
2009,06,08,11,03,16.50
2009,06,08,11,04,16.60
2009,06,08,11,05,16.60
2009,06,08,11,06,16.70
2009,06,08,11,07,16.70
2009,06,08,11,08,16.80
2009,06,08,11,09,16.80
2009,06,08,11,10,16.80
2009,06,08,11,11,16.90
2009,06,08,11,12,17.00
2009,06,08,11,13,17.00
2009,06,08,11,14,17.10
2009,06,08,11,15,17.10
2009,06,08,11,16,17.10
2009,06,08,11,17,17.10
2009,06,08,11,18,17.10
2009,06,08,11,19,17.10
2009,06,08,11,20,17.00
2009,06,08,11,21,17.00
2009,06,08,11,22,17.10
2009,06,08,11,23,17.10
2009,06,08,11,24,17.10
2009,06,08,11,25,17.20
2009,06,08,11,26,17.20
2009,06,08,11,27,17.30
2009,06,08,11,28,17.30
2009,06,08,11,29,17.30
2009,06,08,11,30,17.30
2009,06,08,11,31,17.40
2009,06,08,11,32,17.40
2009,06,08,11,33,17.50
2009,06,08,11,34,17.50
2009,06,08,11,35,17.60
2009,06,08,11,36,17.60
2009,06,08,11,37,17.60
2009,06,08,11,38,17.60
2009,06,08,11,39,17.70
2009,06,08,11,40,17.70
2009,06,08,11,41,17.80
2009,06,08,11,42,17.80
2009,06,08,11,43,17.90
2009,06,08,11,44,18.00
2009,06,08,11,45,18.00
2009,06,08,11,46,18.00
2009,06,08,11,47,18.00
2009,06,08,11,48,17.90
2009,06,08,11,49,17.80
2009,06,08,11,50,17.80
2009,06,08,11,51,17.70
2009,06,08,11,52,17.70
2009,06,08,11,53,17.70
2009,06,08,11,54,17.60
2009,06,08,11,55,17.60
2009,06,08,11,56,17.50
2009,06,08,11,57,17.50
2009,06,08,11,58,17.40
2009,06,08,11,59,17.40
2009,06,08,12,00,17.30
2009,06,08,12,01,17.30
2009,06,08,12,02,17.30
2009,06,08,12,03,17.30
2009,06,08,12,04,17.40
2009,06,08,12,05,17.40
2009,06,08,12,06,17.40
2009,06,08,12,07,17.50
2009,06,08,12,08,17.60
2009,06,08,12,09,17.70
2009,06,08,12,10,17.70
2009,06,08,12,11,17.70
2009,06,08,12,12,17.70
2009,06,08,12,13,17.70
2009,06,08,12,14,17.70
2009,06,08,12,15,17.70
2009,06,08,12,16,17.60
2009,06,08,12,17,17.60
2009,06,08,12,18,17.50
2009,06,08,12,19,17.50
2009,06,08,12,20,17.40
2009,06,08,12,21,17.30
2009,06,08,12,22,17.30
2009,06,08,12,23,17.20
2009,06,08,12,24,17.20
2009,06,08,12,25,17.20
2009,06,08,12,26,17.10
2009,06,08,12,27,17.10
2009,06,08,12,28,17.10
2009,06,08,12,29,17.00
2009,06,08,12,30,17.00
2009,06,08,12,31,16.90
2009,06,08,12,32,16.90
2009,06,08,12,33,16.90
2009,06,08,12,34,16.90
2009,06,08,12,35,17.00
2009,06,08,12,36,17.10
2009,06,08,12,37,17.10
2009,06,08,12,38,17.20
2009,06,08,12,39,17.30
2009,06,08,12,40,17.30
2009,06,08,12,41,17.40
2009,06,08,12,42,17.40
2009,06,08,12,43,17.50
2009,06,08,12,44,17.50
2009,06,08,12,45,17.60
2009,06,08,12,46,17.50
2009,06,08,12,47,17.50
2009,06,08,12,48,17.50
2009,06,08,12,49,17.50
2009,06,08,12,50,17.40
2009,06,08,12,51,17.40
2009,06,08,12,52,17.40
2009,06,08,12,53,17.40
2009,06,08,12,54,17.30
2009,06,08,12,55,17.30
2009,06,08,12,56,17.30
2009,06,08,12,57,17.30
2009,06,08,12,58,17.40
2009,06,08,12,59,17.40
2009,06,08,13,00,17.50
2009,06,08,13,01,17.50
2009,06,08,13,02,17.60
2009,06,08,13,03,17.60
2009,06,08,13,04,17.70
2009,06,08,13,05,17.70
2009,06,08,13,06,17.70
2009,06,08,13,07,17.80
2009,06,08,13,08,17.80
2009,06,08,13,09,17.80
2009,06,08,13,10,17.80
2009,06,08,13,11,17.70
2009,06,08,13,12,17.70
2009,06,08,13,13,17.70
2009,06,08,13,14,17.80
2009,06,08,13,15,17.80
2009,06,08,13,16,17.80
2009,06,08,13,17,17.80
2009,06,08,13,18,17.70
2009,06,08,13,19,17.70
2009,06,08,13,20,17.80
2009,06,08,13,21,17.80
2009,06,08,13,22,17.80
2009,06,08,13,23,17.80
2009,06,08,13,24,17.90
2009,06,08,13,25,17.90
2009,06,08,13,26,17.90
2009,06,08,13,27,18.00
2009,06,08,13,28,18.00
2009,06,08,13,29,18.00
2009,06,08,13,30,18.10
2009,06,08,13,31,18.00
2009,06,08,13,32,18.00
2009,06,08,13,33,18.00
2009,06,08,13,34,18.00
2009,06,08,13,35,18.10
2009,06,08,13,36,18.10
2009,06,08,13,37,18.20
2009,06,08,13,38,18.20
2009,06,08,13,39,18.20
2009,06,08,13,40,18.20
2009,06,08,13,41,18.20
2009,06,08,13,42,18.20
2009,06,08,13,43,18.10
2009,06,08,13,44,18.10
2009,06,08,13,45,18.10
2009,06,08,13,46,18.00
2009,06,08,13,47,18.00
2009,06,08,13,48,18.00
2009,06,08,13,49,18.00
2009,06,08,13,50,18.00
2009,06,08,13,51,18.00
2009,06,08,13,52,18.00
2009,06,08,13,53,18.00
2009,06,08,13,54,18.00
2009,06,08,13,55,18.00
2009,06,08,13,56,18.00
2009,06,08,13,57,18.10
2009,06,08,13,58,18.10
2009,06,08,13,59,18.10
2009,06,08,14,00,18.00
2009,06,08,14,01,18.00
2009,06,08,14,02,18.00
2009,06,08,14,03,18.00
2009,06,08,14,04,18.10
2009,06,08,14,05,18.10
2009,06,08,14,06,18.20
2009,06,08,14,07,18.20
2009,06,08,14,08,18.30
2009,06,08,14,09,18.30
2009,06,08,14,10,18.30
2009,06,08,14,11,18.30
2009,06,08,14,12,18.40
2009,06,08,14,13,18.40
2009,06,08,14,14,18.40
2009,06,08,14,15,18.50
2009,06,08,14,16,18.50
2009,06,08,14,17,18.50
2009,06,08,14,18,18.60
2009,06,08,14,19,18.60
2009,06,08,14,20,18.60
2009,06,08,14,21,18.70
2009,06,08,14,22,18.70
2009,06,08,14,23,18.70
2009,06,08,14,24,18.70
2009,06,08,14,25,18.60
2009,06,08,14,26,18.60
2009,06,08,14,27,18.60
2009,06,08,14,28,18.50
2009,06,08,14,29,18.60
2009,06,08,14,30,18.60
2009,06,08,14,31,18.60
2009,06,08,14,32,18.50
2009,06,08,14,33,18.50
2009,06,08,14,34,18.40
2009,06,08,14,35,18.40
2009,06,08,14,36,18.40
2009,06,08,14,37,18.40
2009,06,08,14,38,18.40
2009,06,08,14,39,18.50
2009,06,08,14,40,18.60
2009,06,08,14,41,18.60
2009,06,08,14,42,18.70
2009,06,08,14,43,18.70
2009,06,08,14,44,18.60
2009,06,08,14,45,18.50
2009,06,08,14,46,18.50
2009,06,08,14,47,18.50
2009,06,08,14,48,18.40
2009,06,08,14,49,18.50
2009,06,08,14,50,18.60
2009,06,08,14,51,18.60
2009,06,08,14,52,18.70
2009,06,08,14,53,18.70
2009,06,08,14,54,18.70
2009,06,08,14,55,18.80
2009,06,08,14,56,18.80
2009,06,08,14,57,18.80
2009,06,08,14,58,18.90
2009,06,08,14,59,18.90
2009,06,08,15,00,19.00
2009,06,08,15,01,19.00
2009,06,08,15,02,19.00
2009,06,08,15,03,19.00
2009,06,08,15,04,19.00
2009,06,08,15,05,19.00
2009,06,08,15,06,19.00
2009,06,08,15,07,19.00
2009,06,08,15,08,19.10
2009,06,08,15,09,19.10
2009,06,08,15,10,19.10
2009,06,08,15,11,19.10
2009,06,08,15,12,19.10
2009,06,08,15,13,19.10
2009,06,08,15,14,19.10
2009,06,08,15,15,19.00
2009,06,08,15,16,18.90
2009,06,08,15,17,18.80
2009,06,08,15,18,18.70
2009,06,08,15,19,18.70
2009,06,08,15,20,18.60
2009,06,08,15,21,18.50
2009,06,08,15,22,18.50
2009,06,08,15,23,18.40
2009,06,08,15,24,18.30
2009,06,08,15,25,18.30
2009,06,08,15,26,18.30
2009,06,08,15,27,18.20
2009,06,08,15,28,18.20
2009,06,08,15,29,18.20
2009,06,08,15,30,18.10
2009,06,08,15,31,18.00
2009,06,08,15,32,17.90
2009,06,08,15,33,17.90
2009,06,08,15,34,17.90
2009,06,08,15,35,18.00
2009,06,08,15,36,18.00
2009,06,08,15,37,18.10
2009,06,08,15,38,18.10
2009,06,08,15,39,18.20
2009,06,08,15,40,18.20
2009,06,08,15,41,18.30
2009,06,08,15,42,18.30
2009,06,08,15,43,18.30
2009,06,08,15,44,18.30
2009,06,08,15,45,18.40
2009,06,08,15,46,18.50
2009,06,08,15,47,18.60
2009,06,08,15,48,18.60
2009,06,08,15,49,18.60
2009,06,08,15,50,18.50
2009,06,08,15,51,18.50
2009,06,08,15,52,18.50
2009,06,08,15,53,18.60
2009,06,08,15,54,18.70
2009,06,08,15,55,18.70
2009,06,08,15,56,18.60
2009,06,08,15,57,18.60
2009,06,08,15,58,18.60
2009,06,08,15,59,18.70
2009,06,08,16,00,18.70
2009,06,08,16,01,18.70
2009,06,08,16,02,18.70
2009,06,08,16,03,18.70
2009,06,08,16,04,18.70
2009,06,08,16,05,18.70
2009,06,08,16,06,18.70
2009,06,08,16,07,18.70
2009,06,08,16,08,18.70
2009,06,08,16,09,18.60
2009,06,08,16,10,18.50
2009,06,08,16,11,18.50
2009,06,08,16,12,18.50
2009,06,08,16,13,18.40
2009,06,08,16,14,18.30
2009,06,08,16,15,18.30
2009,06,08,16,16,18.40
2009,06,08,16,17,18.40
2009,06,08,16,18,18.50
2009,06,08,16,19,18.60
2009,06,08,16,20,18.60
2009,06,08,16,21,18.60
2009,06,08,16,22,18.60
2009,06,08,16,23,18.60
2009,06,08,16,24,18.60
2009,06,08,16,25,18.60
2009,06,08,16,26,18.60
2009,06,08,16,27,18.60
2009,06,08,16,28,18.60
2009,06,08,16,29,18.70
2009,06,08,16,30,18.70
2009,06,08,16,31,18.70
2009,06,08,16,32,18.70
2009,06,08,16,33,18.70
2009,06,08,16,34,18.70
2009,06,08,16,35,18.70
2009,06,08,16,36,18.70
2009,06,08,16,37,18.80
2009,06,08,16,38,18.80
2009,06,08,16,39,18.90
2009,06,08,16,40,18.90
2009,06,08,16,41,18.90
2009,06,08,16,42,18.90
2009,06,08,16,43,18.90
2009,06,08,16,44,18.90
2009,06,08,16,45,18.90
2009,06,08,16,46,18.90
2009,06,08,16,47,19.00
2009,06,08,16,48,19.00
2009,06,08,16,49,19.10
2009,06,08,16,50,19.20
2009,06,08,16,51,19.20
2009,06,08,16,52,19.10
2009,06,08,16,53,19.10
2009,06,08,16,54,19.10
2009,06,08,16,55,19.10
2009,06,08,16,56,19.10
2009,06,08,16,57,19.00
2009,06,08,16,58,18.90
2009,06,08,16,59,18.90
2009,06,08,17,00,18.90
2009,06,08,17,01,18.80
2009,06,08,17,02,18.80
2009,06,08,17,03,18.80
2009,06,08,17,04,18.90
2009,06,08,17,05,19.00
2009,06,08,17,06,19.10
2009,06,08,17,07,19.10
2009,06,08,17,08,19.20
2009,06,08,17,09,19.20
2009,06,08,17,10,19.20
2009,06,08,17,11,19.20
2009,06,08,17,12,19.20
2009,06,08,17,13,19.20
2009,06,08,17,14,19.20
2009,06,08,17,15,19.20
2009,06,08,17,16,19.20
2009,06,08,17,17,19.20
2009,06,08,17,18,19.20
2009,06,08,17,19,19.20